Time,TemperatureF,DewpointF,PressureIn,WindDirection,WindDirectionDegrees,WindSpeedMPH,WindSpeedGustMPH,Humidity,HourlyPrecipIn,Conditions,Clouds,dailyrainin,SoftwareType,DateUTC
2013-02-23 12:11:00,43.8,32.4,30.03,ENE,67,2.0,2.0,64,0.00,,,0.00,Wunderground v.1.15,2013-02-23 18:11:00,
2013-02-23 12:12:00,43.8,31.2,30.04,NE,37,2.0,2.0,61,0.00,,,0.00,Wunderground v.1.15,2013-02-23 18:12:00,
2013-02-23 12:13:00,43.8,30.8,30.03,East,100,2.0,2.0,60,0.00,,,0.00,Wunderground v.1.15,2013-02-23 18:13:00,
2013-02-23 12:19:00,43.7,30.7,30.03,SW,223,2.0,3.0,60,0.00,,,0.00,Wunderground v.1.15,2013-02-23 18:19:00,
2013-02-23 12:24:00,44.2,32.4,30.03,WSW,252,2.0,3.0,63,0.00,,,0.00,Wunderground v.1.15,2013-02-23 18:24:00,
2013-02-23 12:29:00,44.7,32.1,30.03,SSW,197,2.0,3.0,61,0.00,,,0.00,Wunderground v.1.15,2013-02-23 18:29:00,
2013-02-23 12:34:00,44.8,31.3,30.03,WSW,248,2.0,6.0,59,0.00,,,0.00,Wunderground v.1.15,2013-02-23 18:34:00,
2013-02-23 12:39:00,44.9,31.4,30.03,ENE,69,2.0,6.0,59,0.00,,,0.00,Wunderground v.1.15,2013-02-23 18:39:00,
2013-02-23 12:45:00,44.7,30.4,30.02,WSW,250,2.0,6.0,57,0.00,,,0.00,Wunderground v.1.15,2013-02-23 18:45:00,
2013-02-23 12:50:00,44.5,29.8,30.02,SSW,209,3.0,6.0,56,0.00,,,0.00,Wunderground v.1.15,2013-02-23 18:50:00,
2013-02-23 17:19:00,45.4,31.0,29.98,NNE,24,0.0,1.0,57,0.00,,,0.00,Wunderground v.1.15,2013-02-23 23:19:00,
2013-02-23 17:25:00,45.1,31.2,29.98,NNE,24,0.0,1.0,58,0.00,,,0.00,Wunderground v.1.15,2013-02-23 23:25:00,
2013-02-23 17:31:00,44.5,30.6,29.98,NNE,24,0.0,1.0,58,0.00,,,0.00,Wunderground v.1.15,2013-02-23 23:31:00,
2013-02-23 17:37:00,43.8,30.8,29.98,NNE,22,0.0,1.0,60,0.00,,,0.00,Wunderground v.1.15,2013-02-23 23:37:00,
2013-02-23 17:43:00,43.1,30.6,29.99,NNE,25,0.0,1.0,61,0.00,,,0.00,Wunderground v.1.15,2013-02-23 23:43:00,
2013-02-23 17:49:00,42.4,30.7,29.99,North,11,0.0,2.0,63,0.00,,,0.00,Wunderground v.1.15,2013-02-23 23:49:00,
2013-02-23 17:54:00,41.7,30.8,29.99,NNE,16,1.0,3.0,65,0.00,,,0.00,Wunderground v.1.15,2013-02-23 23:54:00,
2013-02-23 17:59:00,41.2,30.7,29.99,East,89,2.0,2.0,66,0.00,,,0.00,Wunderground v.1.15,2013-02-23 23:59:00,
2013-02-23 18:04:00,40.7,30.6,29.99,NE,40,1.0,2.0,67,0.00,,,0.00,Wunderground v.1.15,2013-02-24 00:04:00,
2013-02-23 19:25:00,36.9,29.7,30.02,ENE,68,0.0,2.0,75,0.00,,,0.00,Wunderground v.1.15,2013-02-24 01:25:00,
2013-02-23 19:31:00,37.1,29.2,30.02,NE,46,1.0,2.0,73,0.00,,,0.00,Wunderground v.1.15,2013-02-24 01:31:00,
2013-02-23 19:36:00,37.3,29.4,30.02,SSE,157,1.0,2.0,73,0.00,,,0.00,Wunderground v.1.15,2013-02-24 01:36:00,
2013-02-23 19:42:00,37.2,29.0,30.02,NE,48,1.0,2.0,72,0.00,,,0.00,Wunderground v.1.15,2013-02-24 01:42:00,
2013-02-23 19:47:00,37.1,28.9,30.02,NE,46,0.0,2.0,72,0.00,,,0.00,Wunderground v.1.15,2013-02-24 01:47:00,
2013-02-23 19:53:00,37.2,28.7,30.02,North,5,1.0,3.0,71,0.00,,,0.00,Wunderground v.1.15,2013-02-24 01:53:00,